Tracking 27097 objects as of 29-Mar-2023
HD Live streaming from Space Station
objects crossing your sky now

SHERPA-LTC2

Track SHERPA-LTC2 now!
10-day predictions


NORAD ID: 53754
Int'l Code: 2022-107BG
Perigee: 401.0 km
Apogee: 1,063.4 km
Inclination: 53.2 °
Period: 99.3 minutes
Semi major axis: 7103 km
RCS: Unknown
Launch date: September 5, 2022
Source: United States (US)
Launch site: AIR FORCE EASTERN TEST RANGE (AFETR)
Your satellite tracking list
Your tracking list is empty




NASA's NSSDC Master Catalog

Two Line Element Set (TLE):
1 53754U 22107BG  23087.68187140  .00004484  00000-0  28574-3 0  9990
2 53754  53.2410  87.1095 0466253 225.2132 131.0022 14.50182762 30697
Source of the keplerian elements: AFSPC